Location: Boursonne
(49.2024°N, 3.0468°E)
Time: 02:40:13
(UTC+00:00)

Cosmos 1844 - Pass Details

Date: 03 March 2021
Orbit: 822 x 868 km, 70.9° (Epoch: 12 April)

Event Time Altitude Azimuth Distance (km) Brightness Sun altitude
Rises 18:32:45 0° 332° (NNW) 3,462 7.3 -10.3°
Reaches altitude 10° 18:35:18 10° 337° (NNW) 2,519 6.5 -10.8°
Maximum altitude 18:41:00 57° 56° (NE) 1,008 3.9 -11.7°
Drops below altitude 10° 18:46:37 10° 135° (SE) 2,480 5.7 -12.6°
Enters shadow 18:47:06 - 136° (SE) 2,656 5.8 -12.7°
